Startpagina
METAR-TAF:

METAR-TAF

Vliegvelden :

Yellowstone Lake, Wyoming, Verenigde Staten

breedte: 44-32-40N, lengte: 110-25-16W, hoogte: 2388 m

Actueel weer

Dit bericht is 21 minuten geleden gemaakt, om 23:56 UTC
Wind 3 kt uit variabele richting
Temperatuur -11°C
Vochtigheid 72%
Druk 1009 hPa

METAR: KP60 182356Z AUTO VRB03KT M11/M15 A2981 RMK AO1 SLP225 T11111150 11100 21194 56003

Tijdstip: 17:17 (00:17 UTC)


TAF: ontbreekt

Waarnemingen en weersverwachtingen van meer dan 4000 vliegvelden (METAR en TAF).

De beschikbare stations zijn de gele en rode punten op de kaart.

Ga met uw muis naar het station om de naam te zien.

Klik dan om waarnemingen en weersverwachtingen te zien.

kaart wijzigen: klik op de groene knoppen met een zwart kruis om in te zoomen, op de groene knop met een streepje om uit te zoomen of op de groene pijlen voor aangrenzende kaarten.


METAR-TAF: